WP4MXZ San Sebastian PR US current weather conditions

sailwx.info

Wind from 154 at 4 knots gusting 7

Air temperature 27.8° C
Dewpoint 27.8° C

Last reported at 2014-Nov-23 21:33 UTC.
Time now 2014-Nov-23 22:28 UTC

Location: N 18°20' W 067°00'.
View on Google Maps.

See reports from other nearby stations

  
Tides and Currents Weather Stations Pressure Air Temp Water Temp Dewpoint Dewpoint Depression Visibility Wind Speed Wind Dir Waves Ship Positions
date/time (UTC)wind fromknots sea level pressurealtimeterstation pressurevisibilityair tempwater tempwave heightnotes
2014-Nov-23 21:33 154 4 gusting 7 27.8
2014-Nov-23 21:03 124 6 gusting 9 28.9
2014-Nov-23 20:33 127 1 gusting 10 29.4
2014-Nov-23 20:03 119 5 gusting 9 30.0
2014-Nov-23 19:33 139 4 gusting 10 30.0
2014-Nov-23 19:03 110 4 gusting 6 30.0
2014-Nov-23 18:33 088 6 gusting 11 30.0
2014-Nov-23 18:03 144 6 gusting 9 30.6
2014-Nov-23 17:33 148 1 gusting 7 30.6
2014-Nov-23 17:03 090 5 gusting 12 30.6
2014-Nov-23 16:33 194 3 gusting 6 30.6
2014-Nov-23 16:03 169 0 gusting 11 29.4
2014-Nov-23 15:33 164 3 gusting 7 30.0
2014-Nov-23 15:03 131 5 gusting 10 29.4
2014-Nov-23 14:33 157 3 gusting 11 28.9
2014-Nov-23 14:03 125 5 gusting 9 28.3
2014-Nov-23 13:33 136 3 gusting 10 27.8
2014-Nov-23 13:03 138 1 gusting 6 27.2
2014-Nov-23 12:33 126 25.6
2014-Nov-23 12:03 126 23.3
2014-Nov-23 11:33 126 21.7
2014-Nov-23 11:03 114 20.6
2014-Nov-23 10:33 269 21.1
2014-Nov-23 10:03 269 21.1
2014-Nov-23 09:33 269 21.1
2014-Nov-23 09:03 269 21.7
2014-Nov-23 08:33 269 22.2
2014-Nov-23 08:03 269 22.2
2014-Nov-23 07:33 179 22.2
2014-Nov-23 07:03 178 22.8
2014-Nov-23 06:33 179 22.8
2014-Nov-23 06:03 179 23.9
2014-Nov-23 05:33 134 24.4
2014-Nov-23 05:04 203 23.9
2014-Nov-23 04:33 204 24.4
2014-Nov-23 04:03 204 24.4
2014-Nov-23 03:33 185 23.9
2014-Nov-23 03:03 185 23.3
2014-Nov-23 02:33 185 23.3
2014-Nov-23 02:03 185 23.3
2014-Nov-23 01:33 185 23.3
2014-Nov-23 01:03 185 23.3
2014-Nov-23 00:33 185 23.3
2014-Nov-23 00:03 185 23.9
2014-Nov-22 23:33 185 24.4
2014-Nov-22 23:03 214 23.9
2014-Nov-22 22:33 213 1 gusting 4 24.4
2014-Nov-22 22:03 206 24.4
2014-Nov-22 21:33 180 24.4
2014-Nov-22 21:04 201 1 gusting 6 24.4
2014-Nov-22 20:33 149 3 gusting 7 25.6
2014-Nov-22 20:03 142 3 gusting 9 27.2
2014-Nov-22 19:33 150 3 gusting 10 28.3
2014-Nov-22 19:03 114 3 gusting 7 27.8
2014-Nov-22 18:33 170 4 gusting 11 27.8
2014-Nov-22 18:03 176 1 gusting 6 26.7
2014-Nov-22 17:33 129 2 gusting 8 26.7
2014-Nov-22 17:03 156 4 gusting 7 27.2
2014-Nov-22 16:33 135 4 gusting 11 27.8
2014-Nov-22 16:03 160 2 gusting 12 28.3
2014-Nov-22 15:33 071 1 gusting 6 26.7
2014-Nov-22 15:03 149 3 gusting 7 26.7
2014-Nov-22 14:33 122 6 gusting 11 27.8
2014-Nov-22 14:03 138 1 gusting 9 28.3
2014-Nov-22 13:33 260 26.7
2014-Nov-22 13:04 198 24.4
2014-Nov-22 12:33 138 25.0
2014-Nov-22 12:03 138 24.4
2014-Nov-22 11:33 165 24.4
2014-Nov-22 11:03 174 24.4
2014-Nov-22 10:33 178 23.9
2014-Nov-22 10:03 178 23.9
2014-Nov-22 09:33 194 0 gusting 4 23.9
2014-Nov-22 09:03 237 23.3
2014-Nov-22 08:33 232 23.3
2014-Nov-22 08:03 234 23.3
2014-Nov-22 07:33 251 2 gusting 4 23.3
2014-Nov-22 07:03 216 0 gusting 2 22.8
2014-Nov-22 06:34 199 22.8
2014-Nov-22 06:03 199 23.3
2014-Nov-22 05:33 199 23.9
2014-Nov-22 05:03 217 1 gusting 4 22.8
2014-Nov-22 04:33 191 22.8
2014-Nov-22 04:03 191 22.8
2014-Nov-22 03:33 191 23.3
2014-Nov-22 03:04 191 23.9
2014-Nov-22 02:33 191 24.4
2014-Nov-22 02:03 183 23.9
2014-Nov-22 01:33 183 23.9
2014-Nov-22 01:03 183 25.0
2014-Nov-22 00:33 183 25.0
2014-Nov-22 00:03 245 25.0
2014-Nov-21 23:33 226 25.6
2014-Nov-21 23:03 221 0 gusting 2 26.1
2014-Nov-21 22:33 165 0 gusting 6 26.7
2014-Nov-21 22:04 145 2 gusting 6 27.2